DLH880 ESGG-EDDF

Flight info

Callsign DLH880
Flight time N/A
Altitude 37000
Route TOPLA L996 ERNOV DCT NIKDA/N0453F380 DCT NOBRI DCT BUMIL DCT HLZ DCT RIMET/N0453F310 T157 KOKEB/N0395F230 T157 KERAX KERAX5A
Aircraft A21N/M-SDE2E3FGHIRWXY/LB1

Departure

Time 2026-05-06 12:36
Airport Göteborg Landvetter Airport (ESGG)

Arrival

Time N/A
Airport Frankfurt Main Airport (EDDF)
Time Latitude Longitude Altitude Speed Heading
2026-05-06 12:12 57.66891 12.29403 531 ft 0 kts 117°
2026-05-06 12:24 57.66895 12.29389 531 ft 3 kts 117°
2026-05-06 12:24 57.66909 12.29325 531 ft 3 kts 73°
2026-05-06 12:24 57.66901 12.29303 531 ft 0 kts 30°
2026-05-06 12:27 57.66907 12.29306 531 ft 1 kts
2026-05-06 12:28 57.66937 12.29315 531 ft 0 kts 15°
2026-05-06 12:28 57.66960 12.29331 531 ft 5 kts 21°
2026-05-06 12:28 57.67000 12.29370 532 ft 9 kts 27°
2026-05-06 12:28 57.67063 12.29425 532 ft 10 kts 25°
2026-05-06 12:29 57.67086 12.29446 533 ft 2 kts 25°
2026-05-06 12:30 57.67132 12.29487 533 ft 0 kts 25°
2026-05-06 12:32 57.67134 12.29488 533 ft 0 kts 24°
2026-05-06 12:32 57.67183 12.29516 534 ft 14 kts 355°
2026-05-06 12:33 57.67245 12.29406 534 ft 9 kts 338°
2026-05-06 12:33 57.67309 12.29432 534 ft 11 kts 20°
2026-05-06 12:33 57.67368 12.29469 535 ft 10 kts
2026-05-06 12:33 57.67416 12.29426 535 ft 8 kts 309°
2026-05-06 12:34 57.67446 12.29326 535 ft 6 kts 296°
2026-05-06 12:34 57.67449 12.29315 535 ft 4 kts 296°
2026-05-06 12:34 57.67455 12.29283 535 ft 0 kts 284°
2026-05-06 12:34 57.67456 12.29271 535 ft 4 kts 276°
2026-05-06 12:35 57.67446 12.29089 533 ft 24 kts 244°
2026-05-06 12:35 57.67361 12.28958 533 ft 7 kts 212°
2026-05-06 12:35 57.67263 12.28865 534 ft 51 kts 206°
2026-05-06 12:35 57.66655 12.28314 528 ft 145 kts 206°
2026-05-06 12:36 57.65567 12.27390 882 ft 189 kts 207°
2026-05-06 12:36 57.64304 12.26287 1583 ft 215 kts 204°
2026-05-06 12:36 57.62779 12.25421 2284 ft 240 kts 180°